This is the latest recevied weather packets stored in our database for station/object XE2RCS-1. If no packets are shown the sender has not sent any weather packets the latest 10 day(s).
| Time | Temp. | Humidity | Pressure | Rain* | Wind** | Luminosity | Snow |
|---|---|---|---|---|---|---|---|
| 1788410167 | 23.33° C | 54% | 1017 hPa | 0 mm | - | - | - |
| 1788409566 | 23.33° C | 53% | 1019 hPa | 0 mm | - | - | - |
| 1788408965 | 23.33° C | 52% | 1019 hPa | 0 mm | - | - | - |
| 1788408365 | 23.33° C | 52% | 1019 hPa | 0 mm | - | - | - |
| 1788407764 | 23.33° C | 52% | 1017 hPa | 0 mm | - | - | - |
| 1788407163 | 24.44° C | 69% | 1017 hPa | 0 mm | - | - | - |
| 1788406563 | 24.44° C | 69% | 1017 hPa | 0 mm | - | - | - |
| 1788405962 | 24.44° C | 68% | 1019 hPa | 0 mm | - | - | - |
| 1788405361 | 24.44° C | 68% | 1019 hPa | 0 mm | - | - | - |
| 1788404761 | 24.44° C | 68% | 1019 hPa | 0 mm | - | - | - |
| 1788404160 | 24.44° C | 67% | 1017 hPa | 0 mm | - | - | - |
| 1788403560 | 24.44° C | 67% | 1017 hPa | 0 mm | - | - | - |
| 1788402959 | 24.44° C | 68% | 1017 hPa | 0 mm | - | - | - |
| 1788402358 | 24.44° C | 68% | 1018 hPa | 0 mm | - | - | - |
| 1788401758 | 24.44° C | 68% | 1018 hPa | 0 mm | - | - | - |
| 1788401157 | 24.44° C | 68% | 1018 hPa | 0 mm | - | - | - |
| 1788400556 | 23.89° C | 50% | 1016 hPa | 0 mm | - | - | - |
| 1788399956 | 25° C | 67% | 1016 hPa | 0 mm | - | - | - |
| 1788399355 | 25.56° C | 65% | 1016 hPa | 0 mm | - | - | - |
| 1788398754 | 25.56° C | 65% | 1018 hPa | 0 mm | - | - | - |
| 1788398154 | 25.56° C | 64% | 1018 hPa | 0 mm | - | - | - |
| 1788397553 | 25.56° C | 64% | 1018 hPa | 0 mm | - | - | - |
| 1788396952 | 26.11° C | 64% | 1016 hPa | 0 mm | - | - | - |
| 1788396351 | 26.11° C | 64% | 1016 hPa | 0 mm | - | - | - |
| 1788395751 | 25° C | 64% | 1016 hPa | 0 mm | - | - | - |
* Rain latest hour (hover to see other rain measurements)
** Current wind speed in m/s (hover to see current wind gust speed)